When you browse on this site, cookies collect data to enhance your experience and personalize the content and advertising you see.
Visit our Privacy Policy to learn more. By continuing to use the site, you agree to this use of cookies and data.
  • En España
  • Lista de países
  • Para 7 días
  • Temperatura del agua
  • El tiempo en el mapa
  • Informadores
  • user-avatar
    Iniciar sesión

    Tiempo cada hora Mulhule

    Hoy, 22 Octubre, Martes

    Tiempo Temperatura Precipitaciones Viento Presión Humedad
    00:00 +30°C° 0 mm 7 mps 757 mmHg 63%
    01:00 +30°C° 0 mm 7 mps 757 mmHg 64%
    02:00 +30°C° 0 mm 7 mps 757 mmHg 65%
    03:00 +29°C° 0 mm 7 mps 756 mmHg 66%
    04:00 +29°C° 0 mm 7 mps 757 mmHg 66%
    05:00 +29°C° 0 mm 7 mps 757 mmHg 66%
    06:00 +29°C° 0 mm 7 mps 758 mmHg 65%
    07:00 +30°C° 0 mm 7 mps 758 mmHg 59%
    08:00 +33°C° 0 mm 8 mps 758 mmHg 52%
    09:00 +34°C° 0 mm 9 mps 759 mmHg 46%
    10:00 +35°C° 0 mm 9 mps 758 mmHg 44%
    11:00 +35°C° 0 mm 9 mps 758 mmHg 42%
    12:00 +37°C° 0 mm 9 mps 757 mmHg 40%
    13:00 +37°C° 0 mm 9 mps 757 mmHg 39%
    14:00 +37°C° 0 mm 9 mps 756 mmHg 37%
    15:00 +37°C° 0 mm 9 mps 755 mmHg 36%
    16:00 +35°C° 0 mm 9 mps 755 mmHg 39%
    17:00 +34°C° 0 mm 8 mps 756 mmHg 41%
    18:00 +33°C° 0 mm 8 mps 756 mmHg 43%
    19:00 +33°C° 0 mm 7 mps 756 mmHg 46%
    20:00 +32°C° 0 mm 7 mps 757 mmHg 49%
    21:00 +32°C° 0 mm 6 mps 757 mmHg 51%
    22:00 +30°C° 0 mm 6 mps 757 mmHg 54%
    23:00 +30°C° 0 mm 6 mps 757 mmHg 56%

    Mañana, 23 Octubre, Miércoles

    Tiempo Temperatura Precipitaciones Viento Presión Humedad
    00:00 +30°C° 0 mm 6 mps 757 mmHg 59%
    01:00 +29°C° 0 mm 6 mps 757 mmHg 60%
    02:00 +29°C° 0 mm 6 mps 756 mmHg 61%
    03:00 +29°C° 0 mm 6 mps 756 mmHg 62%
    04:00 +29°C° 0 mm 6 mps 757 mmHg 62%
    05:00 +29°C° 0 mm 6 mps 757 mmHg 61%
    06:00 +28°C° 0 mm 6 mps 758 mmHg 61%
    07:00 +30°C° 0 mm 7 mps 758 mmHg 53%
    08:00 +33°C° 0 mm 7 mps 758 mmHg 45%
    09:00 +35°C° 0 mm 8 mps 758 mmHg 37%
    10:00 +37°C° 0 mm 9 mps 758 mmHg 36%
    11:00 +37°C° 0 mm 9 mps 758 mmHg 34%
    12:00 +38°C° 0 mm 10 mps 757 mmHg 33%
    13:00 +38°C° 0 mm 10 mps 756 mmHg 32%
    14:00 +37°C° 0 mm 10 mps 756 mmHg 32%
    15:00 +37°C° 0 mm 10 mps 755 mmHg 32%
    16:00 +35°C° 0 mm 9 mps 755 mmHg 35%
    17:00 +34°C° 0 mm 8 mps 756 mmHg 38%
    18:00 +33°C° 0 mm 8 mps 756 mmHg 40%
    19:00 +33°C° 0 mm 7 mps 756 mmHg 42%
    20:00 +32°C° 0 mm 7 mps 757 mmHg 44%
    21:00 +32°C° 0 mm 7 mps 757 mmHg 47%
    22:00 +32°C° 0 mm 7 mps 757 mmHg 48%
    23:00 +30°C° 0 mm 7 mps 757 mmHg 50%

    Pasado mañana, 24 Octubre, Jueves

    Tiempo Temperatura Precipitaciones Viento Presión Humedad
    00:00 +30°C° 0 mm 7 mps 757 mmHg 52%
    01:00 +30°C° 0 mm 7 mps 757 mmHg 54%
    02:00 +29°C° 0 mm 7 mps 757 mmHg 55%
    03:00 +29°C° 0 mm 6 mps 757 mmHg 57%
    04:00 +29°C° 0 mm 6 mps 757 mmHg 57%
    05:00 +29°C° 0 mm 6 mps 758 mmHg 58%
    06:00 +29°C° 0 mm 6 mps 758 mmHg 58%
    07:00 +30°C° 0 mm 7 mps 758 mmHg 51%
    08:00 +33°C° 0 mm 8 mps 759 mmHg 45%
    09:00 +35°C° 0 mm 8 mps 759 mmHg 38%
    10:00 +35°C° 0 mm 9 mps 758 mmHg 36%
    11:00 +37°C° 0 mm 9 mps 758 mmHg 34%
    12:00 +38°C° 0 mm 10 mps 757 mmHg 32%
    13:00 +38°C° 0 mm 10 mps 757 mmHg 32%
    14:00 +38°C° 0 mm 10 mps 756 mmHg 32%
    15:00 +37°C° 0 mm 10 mps 756 mmHg 33%
    16:00 +35°C° 0 mm 9 mps 756 mmHg 37%
    17:00 +34°C° 0 mm 9 mps 756 mmHg 41%
    18:00 +33°C° 0 mm 8 mps 756 mmHg 45%
    19:00 +32°C° 0 mm 8 mps 757 mmHg 48%
    20:00 +32°C° 0 mm 8 mps 758 mmHg 52%
    21:00 +30°C° 0 mm 7 mps 758 mmHg 55%
    22:00 +30°C° 0 mm 7 mps 758 mmHg 57%
    23:00 +30°C° 0 mm 7 mps 758 mmHg 59%

    25 Octubre, Viernes

    Tiempo Temperatura Precipitaciones Viento Presión Humedad
    00:00 +29°C° 0 mm 7 mps 757 mmHg 61%
    01:00 +29°C° 0 mm 7 mps 757 mmHg 61%
    02:00 +29°C° 0 mm 7 mps 757 mmHg 61%
    03:00 +29°C° 0 mm 7 mps 757 mmHg 61%
    04:00 +29°C° 0 mm 7 mps 757 mmHg 61%
    05:00 +29°C° 0 mm 7 mps 757 mmHg 62%
    06:00 +29°C° 0 mm 7 mps 758 mmHg 62%
    07:00 +31°C° 0 mm 8 mps 758 mmHg 55%
    08:00 +33°C° 0 mm 8 mps 758 mmHg 49%
    09:00 +34°C° 0 mm 9 mps 759 mmHg 42%
    10:00 +35°C° 0 mm 9 mps 758 mmHg 39%
    11:00 +37°C° 0 mm 9 mps 758 mmHg 36%
    12:00 +38°C° 0 mm 9 mps 757 mmHg 33%
    13:00 +38°C° 0 mm 9 mps 756 mmHg 32%
    14:00 +38°C° 0 mm 9 mps 756 mmHg 32%
    15:00 +37°C° 0 mm 9 mps 755 mmHg 32%
    16:00 +35°C° 0 mm 8 mps 755 mmHg 35%
    17:00 +34°C° 0 mm 8 mps 755 mmHg 38%
    18:00 +33°C° 0 mm 7 mps 756 mmHg 42%
    19:00 +33°C° 0 mm 7 mps 756 mmHg 45%
    20:00 +32°C° 0 mm 7 mps 757 mmHg 49%
    21:00 +30°C° 0 mm 7 mps 757 mmHg 53%
    22:00 +31°C° 0 mm 8 mps 757 mmHg 55%
    23:00 +31°C° 0 mm 8 mps 757 mmHg 58%

    26 Octubre, Sábado

    Tiempo Temperatura Precipitaciones Viento Presión Humedad
    00:00 +29°C° 0 mm 8 mps 757 mmHg 60%
    01:00 +29°C° 0 mm 8 mps 757 mmHg 61%
    02:00 +29°C° 0 mm 8 mps 756 mmHg 61%
    03:00 +29°C° 0 mm 8 mps 756 mmHg 62%
    04:00 +28°C° 0 mm 8 mps 757 mmHg 62%
    05:00 +28°C° 0 mm 8 mps 757 mmHg 61%
    06:00 +28°C° 0 mm 7 mps 757 mmHg 61%
    07:00 +31°C° 0 mm 8 mps 758 mmHg 54%
    08:00 +32°C° 0 mm 8 mps 758 mmHg 48%
    09:00 +34°C° 0 mm 9 mps 759 mmHg 41%
    10:00 +35°C° 0 mm 9 mps 758 mmHg 38%
    11:00 +37°C° 0 mm 9 mps 757 mmHg 36%
    12:00 +38°C° 0 mm 9 mps 757 mmHg 33%
    13:00 +38°C° 0 mm 9 mps 756 mmHg 33%
    14:00 +37°C° 0 mm 9 mps 755 mmHg 32%
    15:00 +37°C° 0 mm 9 mps 755 mmHg 32%
    16:00 +35°C° 0 mm 8 mps 755 mmHg 35%
    17:00 +34°C° 0 mm 8 mps 755 mmHg 38%
    18:00 +33°C° 0 mm 7 mps 755 mmHg 41%
    19:00 +32°C° 0 mm 7 mps 756 mmHg 45%
    20:00 +32°C° 0 mm 6 mps 756 mmHg 49%
    21:00 +30°C° 0 mm 6 mps 757 mmHg 53%
    22:00 +30°C° 0 mm 6 mps 757 mmHg 56%
    23:00 +29°C° 0 mm 6 mps 756 mmHg 59%

    27 Octubre, Domingo

    Tiempo Temperatura Precipitaciones Viento Presión Humedad
    00:00 +29°C° 0 mm 5 mps 756 mmHg 63%
    01:00 +29°C° 0 mm 5 mps 756 mmHg 64%
    02:00 +28°C° 0 mm 5 mps 756 mmHg 65%
    03:00 +28°C° 0 mm 5 mps 755 mmHg 66%
    04:00 +28°C° 0 mm 5 mps 756 mmHg 65%
    05:00 +28°C° 0 mm 5 mps 756 mmHg 64%
    06:00 +28°C° 0 mm 6 mps 757 mmHg 63%
    07:00 +30°C° 0 mm 6 mps 757 mmHg 54%
    08:00 +33°C° 0 mm 7 mps 757 mmHg 45%
    09:00 +35°C° 0 mm 7 mps 758 mmHg 37%
    10:00 +37°C° 0 mm 8 mps 757 mmHg 34%
    11:00 +38°C° 0 mm 8 mps 757 mmHg 31%
    12:00 +38°C° 0 mm 8 mps 756 mmHg 29%
    13:00 +38°C° 0 mm 8 mps 756 mmHg 29%
    14:00 +38°C° 0 mm 8 mps 755 mmHg 29%
    15:00 +38°C° 0 mm 8 mps 754 mmHg 30%
    16:00 +35°C° 0 mm 8 mps 754 mmHg 34%
    17:00 +34°C° 0 mm 7 mps 755 mmHg 38%
    18:00 +33°C° 0 mm 7 mps 755 mmHg 42%
    19:00 +32°C° 0 mm 6 mps 755 mmHg 45%
    20:00 +32°C° 0 mm 6 mps 756 mmHg 49%
    21:00 +30°C° 0 mm 6 mps 756 mmHg 52%
    22:00 +30°C° 0 mm 6 mps 756 mmHg 55%
    23:00 +29°C° 0 mm 6 mps 756 mmHg 57%

    28 Octubre, Lunes

    Tiempo Temperatura Precipitaciones Viento Presión Humedad
    00:00 +29°C° 0 mm 6 mps 756 mmHg 59%
    01:00 +29°C° 0 mm 6 mps 756 mmHg 61%
    02:00 +28°C° 0 mm 6 mps 755 mmHg 62%
    03:00 +28°C° 0 mm 6 mps 755 mmHg 64%
    04:00 +28°C° 0 mm 6 mps 756 mmHg 65%
    05:00 +28°C° 0 mm 5 mps 756 mmHg 66%
    06:00 +28°C° 0 mm 5 mps 756 mmHg 67%
    07:00 +29°C° 0 mm 6 mps 757 mmHg 61%
    08:00 +32°C° 0 mm 7 mps 757 mmHg 55%
    09:00 +33°C° 0 mm 8 mps 758 mmHg 49%
    10:00 +34°C° 0 mm 9 mps 757 mmHg 47%
    11:00 +35°C° 0 mm 9 mps 757 mmHg 45%
    12:00 +35°C° 0 mm 9 mps 756 mmHg 43%
    13:00 +35°C° 0 mm 9 mps 756 mmHg 43%
    14:00 +35°C° 0 mm 9 mps 755 mmHg 44%
    15:00 +35°C° 0 mm 9 mps 754 mmHg 45%
    16:00 +34°C° 0 mm 9 mps 755 mmHg 50%
    17:00 +33°C° 0 mm 8 mps 755 mmHg 55%
    18:00 +31°C° 0 mm 8 mps 755 mmHg 60%
    19:00 +31°C° 0 mm 8 mps 756 mmHg 63%
    20:00 +31°C° 0 mm 8 mps 756 mmHg 66%
    21:00 +29°C° 0 mm 7 mps 756 mmHg 68%
    22:00 +29°C° 0 mm 7 mps 756 mmHg 69%
    23:00 +29°C° 0 mm 7 mps 756 mmHg 69%
    Mostrar más